ARIANE 3 DEB, 26807

Orbit data source: Space-Track

ARIANE 3 DEB, 26807 is space debris in HEO originally from a launch on Thu, 08 Sep 1988 UTC launched from the French Guiana (FRGUI). Debris objects in space refer to the collection of defunct objects orbiting the Earth. Examples of debris include non-operational satellites, rocket bodies, and fragments generated from explosions, collisions, or faulty payload assembly.

Loading next visibility...
Identifier
26807, 1988-081H
Orbit
HEO
Country
Flag of FRFR
Related business
Manufacturer
Unknown
Mission
Spacecraft
Bus & Motor
Unknown
Mass
Unknown
Launch date (UTC)
1988-09-08 (37 years ago)
Launch vehicle
Unknown
Launch site
French Guiana (FRGUI)
Object type
Payload
Rocket body
Debris
Shape & HBR
Unknown shape, 1.1 m
Radar Cross Section
Medium (>0.1 m² and <1 m²)

Expand to show TLE details & history
Last TLE update: 1 week ago

TLE from 1 week ago
0 ARIANE 3 DEB
1 26807U 88081H   25298.85351479 -.00000047  00000-0  00000-0 0  9998
2 26807   6.4878  37.7967 7043795 265.5248  26.6374  2.17369507207517
Epoch: 2025-10-25T20:29Z
TLE epoch observation values (Epoch: 2025-10-25T20:29:03.677Z)
Latitude
1.84158°
Longitude
72.21287°
Altitude
10,563.839 km
Speed
5.587 km/s
True Right ascension
03h 35m 49s
True Declination
1° 50' 13"
Sunlit
Object was in daylight at epoch
Visualization orbit readout
Latitude
Unknown
Longitude
Unknown
Altitude
Unknown
Speed
Unknown
Apparent Right ascension
Unknown
Apparent Declination
Unknown
Sunlit
N/A
Visualization observer readout
Local Sidereal Time
05:00:59
Azimuth
Unknown
Elevation
Unknown
Doppler factor
Unknown
Orbital elements
Apogee altitude
36,534.524 km
Perigee altitude
1,064.96 km
Semi-major axis
25,177.879 km
Eccentricity
0.70438
Inclination
6.4878°
RAAN
37.7967°
Arg. of periapsis
265.5248°
True anomaly
110.97374°
Mean anomaly
26.6374°
Eccentric anomaly
62.40413°
Mean motion
0.54327 °/min
Orbital period
662.66 mins
BSTAR
0
Loading maneuver chart data...
Computing Atmospheric mass density...
Loading historical data...
Loading historical data...
Loading historical data...
Loading historical data...
Loading historical data...
Loading historical data...
Loading historical data...

Documentation

Showing up to 5 results
|